Terminal Aerodrome Forecast
Issued by NWS

Home | Current Version | Previous Version | Graphics & Text | Print | Product List | Glossary On
Versions: 1 2 3 4 5 6 7 8 9 10 11 12 13 14
000
FTUS43 KTOP 300600 AAA
TAFMHK
TAF AMD
KMHK 300636Z 3007/3106 05004KT P6SM VCSH BKN070
      TEMPO 3007/3008 6SM -SHRA BKN060
     FM301500 05005KT P6SM BKN100=

USA.gov is the U.S. government's official web portal to all federal, state and local government web resources and services.